Buckley Air Force Base
KBKF : now visible

Airfield :











YOU CAN JOIN US ON...

 
LOGIN :

Register | Disclaimer

   EN    FR    IT 

 









Legend :    VFR   Marginal VFR   IFR   Intensive IFR   Very Intensive IFR
Visi :
Ceiling :
>= 8 km
>= 3000ft
5 to 8 km
1000 to 3000 ft
1500m to 5 km
500 to 1000 ft
800 to 1500m
200 to 500 ft
< 800m
< 200 ft
Symbols :   Thunderstorms  Fog  Heavy snow  Heavy precipitations  Wind > 20 kt






- Airport Elevation : 5662 ft


KBKF - Buckley Air Force Base

CURRENT METAR :
  • 070158Z 13004KT 10SM FEW130 FEW220 03/M10 A2996 RMK AO2A SLP160 T00291104

EXPIRED METARs :
  • 070058Z 29005KT 10SM FEW130 FEW220 05/M11 A2994 RMK AO2A SLP148 T00481109
  • 062358Z 29006KT 10SM FEW070 FEW130 SCT220 05/M11 A2991 RMK AO2A SLP137 T00531113 10112 20052 52016

TAF TAF KBKF
Valid from the 07 at 01:00 until the 08 at 07:00 UTC


070100Z 0701/0807 VRB06KT 9999 FEW070 510073 QNH2993INS TX08/0722Z TNM04/0711Z
KZDV FIR / North America



MET'MAP, your aeronautical weather chart ! - Copyright ORBIFLY December 2007 - Disclaimer

ORBIFLY MET'MAP TEAM :

Programming & Development : Alexandra Zaïnal
Original concept : Baudouin d'Aumeries
Technical & hardware support : Manuel Goepfert
Assistance : Marc-Olivier Méhu




SOURCES & CREDITS :

   NOAA       Earth
Advisory